Home > Weather > Salalah > Past weeks

Flag for Oman Weather for the Past 2 Weeks in Salalah, Oman

Now
70 °F

Clear.


Feels Like: 70 °F
Forecast: 57 / 79 °F
Wind: 6 mph from North

Location: Salalah Airport

Current Time: Feb 7, 2016 at 12:38:03 AM

Latest Report: Feb 6, 2016 at 11:50 PM


Visibility: 10 mi

Pressure: 30.04 "Hg

Humidity: 46%

Dew point: 48 °F

Location of SalalahLocation

Historic Weather in Salalah — Graph

°F

Salalah Temperature Yesterday

Maximum temperature yesterday: 82 °F (at 1:50 PM)
Minimum temperature yesterday: 68 °F (at 6:50 AM)
Average temperature yesterday: 75 °F

High & Low Weather Summary for the Past Weeks

 TemperatureHumidityPressure
High88 °F (Feb 4, 3:50 PM)73% (Jan 23, 6:50 AM)30.21 "Hg (Jan 23, 6:50 AM)
Low64 °F (Jan 31, 6:50 AM)6% (Feb 5, 3:50 PM)29.92 "Hg (Jan 26, 3:50 PM)
Average75 °F40%30.07 "Hg
* Reported Jan 22 10:50 PM — Feb 6 10:50 PM, Salalah, Weather by CustomWeather, © 2016

Note: Actual official high and low records may vary slightly from our data, if they occured in-between our weather recording intervals... More about our weather records

Advertising

Salalah Weather History for the Previous 24 Hours

 ConditionsComfort  
Time TempWeatherWind HumidityBarometerVisibility
10:50 PM
Sat, Feb 6
70 °FClear.6 mph46%30.04 "Hg10 mi
9:50 PM72 °FClear.6 mph44%30.07 "Hg10 mi
8:50 PM73 °FClear.3 mph44%30.07 "Hg10 mi
7:50 PM75 °FClear.3 mph41%30.04 "Hg10 mi
6:50 PM75 °FClear.8 mph39%30.04 "Hg10 mi
5:50 PM77 °FSunny.9 mph36%30.04 "Hg10 mi
4:50 PM77 °FPassing clouds.12 mph36%30.01 "HgN/A
3:50 PM79 °FPassing clouds.13 mph34%30.01 "HgN/A
2:50 PM81 °FPassing clouds.18 mph23%29.98 "HgN/A
1:50 PM82 °FPassing clouds.8 mph15%30.01 "HgN/A
12:50 PM81 °FPassing clouds.14 mph15%30.04 "HgN/A
11:50 AM81 °FSunny.13 mph17%30.09 "Hg10 mi
10:50 AM79 °FSunny.12 mph20%30.12 "Hg10 mi
9:50 AM77 °FSunny.15 mph21%30.12 "Hg10 mi
8:50 AM75 °FSunny.17 mph22%30.12 "Hg10 mi
6:50 AM68 °FClear.13 mph26%30.09 "Hg10 mi
5:50 AM70 °FClear.13 mph25%30.07 "Hg10 mi
4:50 AM70 °FClear.12 mph21%30.07 "Hg10 mi
3:50 AM70 °FClear.17 mph20%30.07 "Hg10 mi
2:50 AM70 °FClear.16 mph20%30.07 "Hg10 mi
1:50 AM72 °FClear.18 mph17%30.09 "Hg10 mi
12:50 AM72 °FClear.13 mph19%30.09 "Hg10 mi
Weather by CustomWeather, © 2016

See weather overviewHow to use our weather pages